Time,TemperatureF,DewpointF,PressureIn,WindDirection,WindDirectionDegrees,WindSpeedMPH,WindSpeedGustMPH,Humidity,HourlyPrecipIn,Conditions,Clouds,dailyrainin,SoftwareType,DateUTC
2013-04-01 00:03:00,50.0,50.0,29.76,West,260,7.0,-999.0,100,-99.99,,,-99.99,,2013-04-01 04:03:00,
2013-04-01 00:14:00,48.0,48.0,29.76,West,280,10.0,-999.0,100,-99.99,,,-99.99,,2013-04-01 04:14:00,
2013-04-01 00:23:00,50.0,50.0,29.76,West,260,7.0,-999.0,100,-99.99,,,-99.99,,2013-04-01 04:23:00,
2013-04-01 00:33:00,50.0,50.0,29.76,West,260,7.0,-999.0,100,-99.99,,,-99.99,,2013-04-01 04:33:00,
2013-04-01 00:43:00,50.0,50.0,29.76,West,260,12.0,-999.0,100,-99.99,,,-99.99,,2013-04-01 04:43:00,
2013-04-01 00:53:00,50.0,50.0,29.76,West,280,5.0,-999.0,100,-99.99,,,-99.99,,2013-04-01 04:53:00,
2013-04-01 01:03:00,50.0,50.0,29.76,West,280,5.0,-999.0,100,-99.99,,,-99.99,,2013-04-01 05:03:00,
2013-04-01 01:12:00,50.0,50.0,29.76,West,280,5.0,-999.0,100,-99.99,,,-99.99,,2013-04-01 05:12:00,
2013-04-01 01:22:00,50.0,50.0,29.76,WNW,300,7.0,-999.0,100,-99.99,,,-99.99,,2013-04-01 05:22:00,
2013-04-01 01:32:00,48.0,48.0,29.77,WSW,250,6.0,-999.0,100,-99.99,,,-99.99,,2013-04-01 05:32:00,
2013-04-01 01:43:00,48.0,48.0,29.77,WSW,250,8.0,-999.0,100,-99.99,,,-99.99,,2013-04-01 05:43:00,
2013-04-01 01:52:00,48.0,48.0,29.76,WSW,250,7.0,-999.0,100,-99.99,,,-99.99,,2013-04-01 05:52:00,
2013-04-01 02:02:00,48.0,48.0,29.76,WSW,250,7.0,-999.0,100,-99.99,,,-99.99,,2013-04-01 06:02:00,
2013-04-01 02:12:00,48.0,48.0,29.76,West,260,5.0,-999.0,100,-99.99,,,-99.99,,2013-04-01 06:12:00,
2013-04-01 02:23:00,48.0,48.0,29.76,West,260,6.0,-999.0,100,-99.99,,,-99.99,,2013-04-01 06:23:00,
2013-04-01 02:33:00,48.0,48.0,29.76,West,260,7.0,-999.0,100,-99.99,,,-99.99,,2013-04-01 06:33:00,
2013-04-01 02:43:00,48.0,48.0,29.76,West,270,5.0,-999.0,100,-99.99,,,-99.99,,2013-04-01 06:43:00,
2013-04-01 02:52:00,48.0,48.0,29.77,West,280,6.0,-999.0,100,-99.99,,,-99.99,,2013-04-01 06:52:00,
2013-04-01 03:03:00,48.0,48.0,29.77,West,280,6.0,-999.0,100,-99.99,,,-99.99,,2013-04-01 07:03:00,
2013-04-01 03:13:00,46.0,46.0,29.77,West,270,5.0,-999.0,100,-99.99,,,-99.99,,2013-04-01 07:13:00,
2013-04-01 03:22:00,46.0,46.0,29.76,WNW,290,3.0,-999.0,100,-99.99,,,-99.99,,2013-04-01 07:22:00,
2013-04-01 03:32:00,46.0,46.0,29.76,WNW,290,6.0,-999.0,100,-99.99,,,-99.99,,2013-04-01 07:32:00,
2013-04-01 03:42:00,46.0,46.0,29.76,West,270,3.0,-999.0,100,-99.99,,,-99.99,,2013-04-01 07:42:00,
2013-04-01 03:52:00,46.0,46.0,29.76,WSW,250,3.0,-999.0,100,-99.99,,,-99.99,,2013-04-01 07:52:00,
2013-04-01 04:03:00,46.0,46.0,29.76,WSW,250,3.0,-999.0,100,-99.99,,,-99.99,,2013-04-01 08:03:00,
2013-04-01 04:12:00,45.0,45.0,29.76,SW,230,3.0,-999.0,100,-99.99,,,-99.99,,2013-04-01 08:12:00,
2013-04-01 04:22:00,45.0,45.0,29.76,WSW,240,2.0,-999.0,100,-99.99,,,-99.99,,2013-04-01 08:22:00,
2013-04-01 04:32:00,45.0,45.0,29.76,SW,230,2.0,-999.0,100,-99.99,,,-99.99,,2013-04-01 08:32:00,
2013-04-01 04:43:00,43.0,43.0,29.76,WSW,240,2.0,-999.0,100,-99.99,,,-99.99,,2013-04-01 08:43:00,
2013-04-01 04:52:00,41.0,41.0,29.76,WSW,240,2.0,-999.0,100,-99.99,,,-99.99,,2013-04-01 08:52:00,
2013-04-01 05:02:00,41.0,41.0,29.76,WSW,240,2.0,-999.0,100,-99.99,,,-99.99,,2013-04-01 09:02:00,
2013-04-01 05:12:00,39.0,39.0,29.77,SW,220,3.0,-999.0,100,-99.99,,,-99.99,,2013-04-01 09:12:00,
2013-04-01 05:23:00,43.0,43.0,29.77,WSW,240,3.0,-999.0,100,-99.99,,,-99.99,,2013-04-01 09:23:00,
2013-04-01 05:33:00,41.0,41.0,29.77,WSW,250,3.0,-999.0,100,-99.99,,,-99.99,,2013-04-01 09:33:00,
2013-04-01 05:42:00,45.0,45.0,29.77,WSW,250,5.0,-999.0,100,-99.99,,,-99.99,,2013-04-01 09:42:00,
2013-04-01 05:53:00,45.0,45.0,29.77,West,260,1.0,-999.0,100,-99.99,,,-99.99,,2013-04-01 09:53:00,
2013-04-01 06:03:00,45.0,45.0,29.77,West,260,1.0,-999.0,100,-99.99,,,-99.99,,2013-04-01 10:03:00,
2013-04-01 06:12:00,43.0,43.0,29.77,WSW,250,2.0,-999.0,100,-99.99,,,-99.99,,2013-04-01 10:12:00,
2013-04-01 06:23:00,45.0,45.0,29.76,WSW,250,2.0,-999.0,100,-99.99,,,-99.99,,2013-04-01 10:23:00,
2013-04-01 06:33:00,41.0,41.0,29.77,WSW,240,3.0,-999.0,100,-99.99,,,-99.99,,2013-04-01 10:33:00,
2013-04-01 06:42:00,41.0,41.0,29.76,West,280,2.0,-999.0,100,-99.99,,,-99.99,,2013-04-01 10:42:00,
2013-04-01 06:53:00,43.0,43.0,29.75,West,260,1.0,-999.0,100,-99.99,,,-99.99,,2013-04-01 10:53:00,
2013-04-01 07:03:00,43.0,43.0,29.75,West,260,1.0,-999.0,100,-99.99,,,-99.99,,2013-04-01 11:03:00,
2013-04-01 07:13:00,39.0,39.0,29.75,West,270,3.0,-999.0,100,-99.99,,,-99.99,,2013-04-01 11:13:00,
2013-04-01 07:23:00,37.0,37.0,29.76,SW,230,3.0,-999.0,100,-99.99,,,-99.99,,2013-04-01 11:23:00,
2013-04-01 07:33:00,37.0,37.0,29.76,West,260,5.0,-999.0,100,-99.99,,,-99.99,,2013-04-01 11:33:00,
2013-04-01 07:42:00,39.0,39.0,29.76,WNW,290,3.0,-999.0,100,-99.99,,,-99.99,,2013-04-01 11:42:00,
2013-04-01 07:52:00,41.0,41.0,29.77,WSW,240,3.0,-999.0,100,-99.99,,,-99.99,,2013-04-01 11:52:00,
2013-04-01 08:03:00,41.0,41.0,29.77,WSW,240,3.0,-999.0,100,-99.99,,,-99.99,,2013-04-01 12:03:00,
2013-04-01 08:12:00,45.0,45.0,29.77,SW,230,5.0,-999.0,100,-99.99,,,-99.99,,2013-04-01 12:12:00,
2013-04-01 08:23:00,46.0,46.0,29.78,SW,230,6.0,-999.0,100,-99.99,,,-99.99,,2013-04-01 12:23:00,
2013-04-01 08:32:00,48.0,48.0,29.78,WSW,250,9.0,-999.0,100,-99.99,,,-99.99,,2013-04-01 12:32:00,
2013-04-01 08:42:00,48.0,48.0,29.78,WSW,250,6.0,-999.0,100,-99.99,,,-99.99,,2013-04-01 12:42:00,
2013-04-01 08:52:00,48.0,48.0,29.78,West,260,10.0,-999.0,100,-99.99,,,-99.99,,2013-04-01 12:52:00,
2013-04-01 09:03:00,48.0,48.0,29.78,West,260,10.0,-999.0,100,-99.99,,,-99.99,,2013-04-01 13:03:00,
2013-04-01 09:12:00,50.0,50.0,29.79,WSW,250,6.0,-999.0,100,-99.99,,,-99.99,,2013-04-01 13:12:00,
2013-04-01 09:22:00,52.0,50.0,29.79,SW,230,8.0,-999.0,93,-99.99,,,-99.99,,2013-04-01 13:22:00,
2013-04-01 09:32:00,52.0,50.0,29.79,SW,230,6.0,-999.0,93,-99.99,,,-99.99,,2013-04-01 13:32:00,
2013-04-01 09:42:00,54.0,50.0,29.78,West,270,8.0,-999.0,87,-99.99,,,-99.99,,2013-04-01 13:42:00,
2013-04-01 09:52:00,54.0,48.0,29.78,WSW,240,6.0,-999.0,81,-99.99,,,-99.99,,2013-04-01 13:52:00,
2013-04-01 10:04:00,54.0,48.0,29.78,WSW,240,6.0,-999.0,81,-99.99,,,-99.99,,2013-04-01 14:04:00,
2013-04-01 10:12:00,55.0,48.0,29.78,WSW,250,10.0,-999.0,76,-99.99,,,-99.99,,2013-04-01 14:12:00,
2013-04-01 10:22:00,55.0,46.0,29.78,West,270,10.0,-999.0,71,-99.99,,,-99.99,,2013-04-01 14:22:00,
2013-04-01 10:33:00,55.0,46.0,29.77,West,280,9.0,-999.0,71,-99.99,,,-99.99,,2013-04-01 14:33:00,
2013-04-01 10:42:00,57.0,46.0,29.77,WSW,240,9.0,-999.0,67,-99.99,,,-99.99,,2013-04-01 14:42:00,
2013-04-01 10:52:00,57.0,45.0,29.77,West,280,9.0,17.0,62,-99.99,,,-99.99,,2013-04-01 14:52:00,
2013-04-01 11:03:00,57.0,45.0,29.77,West,280,9.0,17.0,62,-99.99,,,-99.99,,2013-04-01 15:03:00,
2013-04-01 11:13:00,57.0,45.0,29.77,WSW,240,8.0,18.0,62,-99.99,,,-99.99,,2013-04-01 15:13:00,
2013-04-01 11:22:00,59.0,45.0,29.77,WSW,250,13.0,-999.0,58,-99.99,,,-99.99,,2013-04-01 15:22:00,
2013-04-01 11:34:00,59.0,45.0,29.76,WSW,250,10.0,-999.0,58,-99.99,,,-99.99,,2013-04-01 15:34:00,
2013-04-01 11:43:00,63.0,46.0,29.76,WSW,250,12.0,16.0,55,-99.99,,,-99.99,,2013-04-01 15:43:00,
2013-04-01 11:53:00,61.0,45.0,29.76,SW,220,14.0,-999.0,55,-99.99,,,-99.99,,2013-04-01 15:53:00,
2013-04-01 12:03:00,61.0,45.0,29.76,SW,220,14.0,-999.0,55,-99.99,,,-99.99,,2013-04-01 16:03:00,
2013-04-01 12:13:00,63.0,45.0,29.76,SW,220,15.0,20.0,51,-99.99,,,-99.99,,2013-04-01 16:13:00,
2013-04-01 12:23:00,63.0,45.0,29.75,SW,230,13.0,23.0,51,-99.99,,,-99.99,,2013-04-01 16:23:00,
2013-04-01 12:33:00,63.0,45.0,29.74,WSW,240,9.0,22.0,51,-99.99,,,-99.99,,2013-04-01 16:33:00,
2013-04-01 12:43:00,63.0,45.0,29.74,WSW,240,14.0,22.0,51,-99.99,,,-99.99,,2013-04-01 16:43:00,
2013-04-01 12:52:00,64.0,45.0,29.74,WSW,250,12.0,21.0,48,-99.99,,,-99.99,,2013-04-01 16:52:00,
2013-04-01 13:03:00,64.0,45.0,29.74,WSW,250,12.0,21.0,48,-99.99,,,-99.99,,2013-04-01 17:03:00,
2013-04-01 13:12:00,64.0,45.0,29.73,WSW,240,15.0,22.0,48,-99.99,,,-99.99,,2013-04-01 17:12:00,
2013-04-01 13:23:00,64.0,43.0,29.73,SW,220,13.0,24.0,45,-99.99,,,-99.99,,2013-04-01 17:23:00,
2013-04-01 13:32:00,64.0,43.0,29.72,WSW,240,15.0,24.0,45,-99.99,,,-99.99,,2013-04-01 17:32:00,
2013-04-01 13:42:00,64.0,43.0,29.72,WSW,240,16.0,-999.0,45,-99.99,,,-99.99,,2013-04-01 17:42:00,
2013-04-01 13:52:00,66.0,41.0,29.72,WSW,250,15.0,17.0,39,-99.99,,,-99.99,,2013-04-01 17:52:00,
2013-04-01 14:03:00,66.0,41.0,29.72,WSW,250,15.0,17.0,39,-99.99,,,-99.99,,2013-04-01 18:03:00,
2013-04-01 14:12:00,64.0,41.0,29.71,WSW,250,12.0,20.0,42,-99.99,,,-99.99,,2013-04-01 18:12:00,
2013-04-01 14:22:00,66.0,45.0,29.71,West,270,14.0,21.0,45,-99.99,,,-99.99,,2013-04-01 18:22:00,
2013-04-01 14:33:00,64.0,41.0,29.71,West,260,13.0,17.0,42,-99.99,,,-99.99,,2013-04-01 18:33:00,
2013-04-01 14:42:00,64.0,41.0,29.71,WSW,250,15.0,17.0,42,-99.99,,,-99.99,,2013-04-01 18:42:00,
2013-04-01 14:52:00,64.0,41.0,29.71,WSW,240,14.0,-999.0,42,-99.99,,,-99.99,,2013-04-01 18:52:00,
2013-04-01 15:03:00,64.0,41.0,29.71,WSW,240,14.0,-999.0,42,-99.99,,,-99.99,,2013-04-01 19:03:00,
2013-04-01 15:13:00,64.0,41.0,29.70,West,270,13.0,20.0,42,-99.99,,,-99.99,,2013-04-01 19:13:00,
2013-04-01 15:23:00,66.0,43.0,29.69,West,260,15.0,20.0,42,-99.99,,,-99.99,,2013-04-01 19:23:00,
2013-04-01 15:32:00,64.0,41.0,29.68,West,260,10.0,-999.0,42,-99.99,,,-99.99,,2013-04-01 19:32:00,
2013-04-01 15:42:00,66.0,41.0,29.68,West,270,13.0,18.0,39,-99.99,,,-99.99,,2013-04-01 19:42:00,
2013-04-01 15:53:00,66.0,41.0,29.68,West,270,10.0,-999.0,39,-99.99,,,-99.99,,2013-04-01 19:53:00,
2013-04-01 16:02:00,66.0,41.0,29.68,West,270,10.0,-999.0,39,-99.99,,,-99.99,,2013-04-01 20:02:00,
2013-04-01 16:13:00,64.0,41.0,29.68,WNW,290,10.0,21.0,42,-99.99,,,-99.99,,2013-04-01 20:13:00,
2013-04-01 16:23:00,63.0,43.0,29.69,West,280,14.0,18.0,48,-99.99,,,-99.99,,2013-04-01 20:23:00,
2013-04-01 16:33:00,59.0,41.0,29.69,WNW,300,8.0,21.0,51,-99.99,,,-99.99,,2013-04-01 20:33:00,
2013-04-01 16:42:00,59.0,41.0,29.69,WNW,290,15.0,17.0,51,-99.99,,,-99.99,,2013-04-01 20:42:00,
2013-04-01 16:52:00,55.0,45.0,29.71,West,280,12.0,-999.0,66,-99.99,,,-99.99,,2013-04-01 20:52:00,
2013-04-01 17:02:00,55.0,45.0,29.71,West,280,12.0,-999.0,66,-99.99,,,-99.99,,2013-04-01 21:02:00,
2013-04-01 17:12:00,54.0,45.0,29.72,NW,320,8.0,20.0,71,-99.99,,,-99.99,,2013-04-01 21:12:00,
2013-04-01 17:23:00,55.0,45.0,29.73,NNW,330,17.0,27.0,66,-99.99,,,-99.99,,2013-04-01 21:23:00,
2013-04-01 17:33:00,54.0,41.0,29.74,NNW,330,16.0,25.0,62,-99.99,,,-99.99,,2013-04-01 21:33:00,
2013-04-01 17:43:00,54.0,43.0,29.76,NW,320,23.0,27.0,66,-99.99,,,-99.99,,2013-04-01 21:43:00,
2013-04-01 17:52:00,50.0,41.0,29.76,NNW,340,14.0,32.0,71,-99.99,,,-99.99,,2013-04-01 21:52:00,
2013-04-01 18:03:00,50.0,41.0,29.76,NNW,340,14.0,32.0,71,-99.99,,,-99.99,,2013-04-01 22:03:00,
2013-04-01 18:12:00,48.0,41.0,29.77,NW,320,9.0,16.0,76,-99.99,,,-99.99,,2013-04-01 22:12:00,
2013-04-01 18:22:00,48.0,45.0,29.77,NNW,330,10.0,-999.0,87,-99.99,,,-99.99,,2013-04-01 22:22:00,
2013-04-01 18:33:00,48.0,43.0,29.78,NW,320,6.0,-999.0,81,-99.99,,,-99.99,,2013-04-01 22:33:00,
2013-04-01 18:43:00,48.0,43.0,29.78,NW,310,6.0,-999.0,81,-99.99,,,-99.99,,2013-04-01 22:43:00,
2013-04-01 18:52:00,48.0,41.0,29.78,NNW,340,6.0,-999.0,76,-99.99,,,-99.99,,2013-04-01 22:52:00,
2013-04-01 19:02:00,48.0,41.0,29.78,NNW,340,6.0,-999.0,76,-99.99,,,-99.99,,2013-04-01 23:02:00,
2013-04-01 19:12:00,50.0,39.0,29.78,NW,320,9.0,-999.0,66,-99.99,,,-99.99,,2013-04-01 23:12:00,
2013-04-01 19:23:00,50.0,37.0,29.79,NW,320,15.0,-999.0,61,-99.99,,,-99.99,,2013-04-01 23:23:00,
2013-04-01 19:32:00,48.0,37.0,29.80,NNW,330,10.0,-999.0,66,-99.99,,,-99.99,,2013-04-01 23:32:00,
2013-04-01 19:43:00,48.0,36.0,29.80,NW,310,13.0,-999.0,61,-99.99,,,-99.99,,2013-04-01 23:43:00,
2013-04-01 19:52:00,48.0,34.0,29.81,NNW,330,9.0,20.0,57,-99.99,,,-99.99,,2013-04-01 23:52:00,
2013-04-01 20:03:00,48.0,34.0,29.81,NNW,330,9.0,20.0,57,-99.99,,,-99.99,,2013-04-02 00:03:00,
2013-04-01 20:12:00,48.0,32.0,29.82,NNW,330,12.0,20.0,53,-99.99,,,-99.99,,2013-04-02 00:12:00,
2013-04-01 20:22:00,48.0,28.0,29.84,NNW,330,17.0,24.0,46,-99.99,,,-99.99,,2013-04-02 00:22:00,
2013-04-01 20:33:00,48.0,27.0,29.84,NNW,340,12.0,22.0,42,-99.99,,,-99.99,,2013-04-02 00:33:00,
2013-04-01 20:42:00,46.0,27.0,29.84,NW,320,13.0,20.0,45,-99.99,,,-99.99,,2013-04-02 00:42:00,
2013-04-01 20:52:00,46.0,25.0,29.86,NW,320,10.0,20.0,42,-99.99,,,-99.99,,2013-04-02 00:52:00,
2013-04-01 21:02:00,46.0,25.0,29.86,NW,320,10.0,20.0,42,-99.99,,,-99.99,,2013-04-02 01:02:00,
2013-04-01 21:12:00,46.0,25.0,29.88,NW,310,8.0,18.0,42,-99.99,,,-99.99,,2013-04-02 01:12:00,
2013-04-01 21:22:00,46.0,25.0,29.88,NNW,330,14.0,-999.0,42,-99.99,,,-99.99,,2013-04-02 01:22:00,
2013-04-01 21:32:00,46.0,25.0,29.88,NNW,340,7.0,-999.0,42,-99.99,,,-99.99,,2013-04-02 01:32:00,
2013-04-01 21:42:00,45.0,25.0,29.89,NW,320,13.0,-999.0,45,-99.99,,,-99.99,,2013-04-02 01:42:00,
2013-04-01 21:52:00,45.0,23.0,29.89,NW,320,8.0,-999.0,42,-99.99,,,-99.99,,2013-04-02 01:52:00,
2013-04-01 22:03:00,45.0,23.0,29.89,NW,320,8.0,-999.0,42,-99.99,,,-99.99,,2013-04-02 02:03:00,
2013-04-01 22:12:00,45.0,23.0,29.90,NW,320,13.0,-999.0,42,-99.99,,,-99.99,,2013-04-02 02:12:00,
2013-04-01 22:22:00,45.0,23.0,29.90,NNW,340,8.0,-999.0,42,-99.99,,,-99.99,,2013-04-02 02:22:00,
2013-04-01 22:32:00,43.0,23.0,29.90,WNW,300,8.0,-999.0,45,-99.99,,,-99.99,,2013-04-02 02:32:00,
2013-04-01 22:42:00,43.0,23.0,29.91,NW,310,3.0,-999.0,45,-99.99,,,-99.99,,2013-04-02 02:42:00,
2013-04-01 22:52:00,41.0,23.0,29.91,NW,320,5.0,-999.0,48,-99.99,,,-99.99,,2013-04-02 02:52:00,
2013-04-01 23:02:00,41.0,23.0,29.91,NW,320,5.0,-999.0,48,-99.99,,,-99.99,,2013-04-02 03:02:00,
2013-04-01 23:12:00,41.0,23.0,29.91,WNW,300,6.0,-999.0,48,-99.99,,,-99.99,,2013-04-02 03:12:00,
2013-04-01 23:22:00,43.0,21.0,29.91,NW,320,8.0,-999.0,41,-99.99,,,-99.99,,2013-04-02 03:22:00,
2013-04-01 23:33:00,41.0,21.0,29.92,NNW,330,6.0,-999.0,44,-99.99,,,-99.99,,2013-04-02 03:33:00,
2013-04-01 23:43:00,43.0,21.0,29.92,NW,320,8.0,-999.0,41,-99.99,,,-99.99,,2013-04-02 03:43:00,
2013-04-01 23:53:00,41.0,19.0,29.92,NNW,340,13.0,-999.0,41,-99.99,,,-99.99,,2013-04-02 03:53:00,